Tracking 28790 objects as of 18-Apr-2024
HD Live streaming from Space Station
objects crossing your sky now

YAOGAN 1 DEB

Track YAOGAN 1 DEB now!
10-day predictions


NORAD ID: 36365
Int'l Code: 2006-015J
Perigee: 571.4 km
Apogee: 596.8 km
Inclination: 97.9 °
Period: 96.2 minutes
Semi major axis: 6955 km
RCS: 1.559 m2 (large)
Launch date: April 26, 2006
Source: People's Republic of China (PRC)
Launch site: Taiyaun Space Center, China (TSC)

Note: This is SATELLITE DEBRIS
Your satellite tracking list
Your tracking list is empty




NASA's NSSDC Master Catalog

Two Line Element Set (TLE):
1 36365U 06015J   24108.71462659  .00015431  00000-0  13487-2 0  9999
2 36365  97.8891 155.4794 0018230 341.2023  18.8523 14.96736308769221
Source of the keplerian elements: AFSPC